STARLINK-3525, 51733

Orbit data source: Space-Track

STARLINK-3525, 51733 is a payload satellite owned by SpaceX/Seattle (US) in LEO that was launched on Mon, 21 Feb 2022 UTC via an FALCON 9 launch vehicle from the Air Force Eastern Test Range (AFETR). Payload-class satellites include a variety of spacecraft equipped with specific instruments for various scientific and technological missions. These include communications satellites like Starlink; space stations such as the ISS; scientific satellites like the Hubble; Earth observation satellites from companies like Planet Labs, Umbra, and HawkEye 360; GPS; miniature CubeSats for education and research; and military/defense satellites.

Loading next visibility...
Identifier
51733, 2022-016V
Orbit
LEO
Country
Flag of USUS
Related business
Manufacturer
SpaceX/Seattle
Mission
Operational Commercial Communications
Bus & Motor
STARLINK, Unknown motor
Mass
297 kg wet, ~275 kg dry
Launch date (UTC)
2022-02-21 (4 years ago)
Launch vehicle
FALCON 9
Launch site
Air Force Eastern Test Range (AFETR)
Object type
Payload
Rocket body
Debris
Shape & HBR
Box + 1 Pan, 10.1 m
Radar Cross Section
13.562 m², Large (>1 m²)

Expand to show TLE details & history
Last TLE update: 2 days ago

TLE from 2 days ago
0 STARLINK-3525
1 51733U 22016V   26171.40983222 -.00002543  00000-0 -14174-3 0  9993
2 51733  53.1562 217.8838 0001102  92.1073 268.0045 15.08837298239073
Epoch: 2026-06-20T09:50Z
TLE epoch observation values (Epoch: 2026-06-20T09:50:09.503Z)
Latitude
-0°
Longitude
161.71934°
Altitude
540.669 km
Speed
7.593 km/s
True Right ascension
14h 31m 32s
True Declination
0° 00' 00"
Sunlit
Object was in full shadow at epoch
Visualization orbit readout
Latitude
Unknown
Longitude
Unknown
Altitude
Unknown
Speed
Unknown
Apparent Right ascension
Unknown
Apparent Declination
Unknown
Sunlit
N/A
Visualization observer readout
Local Sidereal Time
00:34:18
Azimuth
Unknown
Elevation
Unknown
Doppler factor
Unknown
Orbital elements
Apogee altitude
540.769 km
Perigee altitude
539.244 km
Semi-major axis
6,918.143 km
Eccentricity
0.00011
Inclination
53.1562°
RAAN
217.8838°
Arg. of periapsis
92.1073°
True anomaly
267.99188°
Mean anomaly
268.0045°
Eccentric anomaly
267.99819°
Mean motion
3.77189 °/min
Orbital period
95.44 mins
BSTAR
-0.00014174
Loading maneuver chart data...
Computing Atmospheric mass density...
Loading historical data...
Loading historical data...
Loading historical data...
Loading historical data...
Loading historical data...
Loading historical data...
Loading historical data...

Documentation

Showing up to 5 results
|